Bangor, ME

4:30 AM EDT on October 21, 2019 (GMT -0400)
Bangor International

Weather History for KBGR - August, 2019

Change the Weather History Date:

Wednesday, August 7, 2019

  Actual Average Record
Temperature  
Mean Temperature 71 °F 68 °F  
Max Temperature 78 °F 80 °F 97 °F (1937)
Min Temperature 64 °F 57 °F 43 °F (1942)
Degree Days  
Heating Degree Days 0 1  
Month to date heating degree days 0 7  
Since 1 June heating degree days 90 137  
Since 1 July heating degree days 0 30  
Cooling Degree Days 6 4  
Month to date cooling degree days 30 28  
Year to date cooling degree days 256 218  
Since 1 June cooling degree days 256 212  
Growing Degree Days 20 (Base 50)    
Moisture  
Dew Point 64 °F    
Average Humidity 81    
Maximum Humidity 93    
Minimum Humidity 69    
Precipitation  
Precipitation 0.49 in 0.11 in 1.33 in (1955)
Month to date precipitation 0.49 0.76  
Year to date precipitation 29.16 24.03  
Snow  
Snow 0.00 in 0.00 in 0.00 in (2002)
Month to date snowfall 0.0 0.0  
Since 1 June snowfall 0.0 0.0  
Since 1 July snowfall 0.0 0.0  
Snow Depth 0.00 in    
Sea Level Pressure  
Sea Level Pressure 29.86 in    
Wind  
Wind Speed 7 mph (South)    
Max Wind Speed 17 mph    
Max Gust Speed 25 mph    
Visibility 8 miles    
Events Rain , Thunderstorm    
T = Trace of Precipitation, MM = Missing Value Source: NWS Daily Summary

Daily Weather History Graph

Daily Weather History Graph

Search for Another Location

Airport or City:

Astronomy

Aug. 07, 2019 Rise Set
Actual Time 5:27 AM EDT 7:53 PM EDT
Civil Twilight 4:54 AM EDT 8:26 PM EDT
Nautical Twilight 4:13 AM EDT 9:07 PM EDT
Astronomical Twilight 3:27 AM EDT 9:53 PM EDT
Moon 1:15 PM EDT (8/7) 11:51 PM EDT (8/7)
Length of Visible Light 15h 31m
Length of Day
14h 25m
Waxing Crescent, 49% of the Moon is Illuminated
Aug 7
Waxing Crescent
Aug 7
First Quarter
Aug 15
Full
Aug 23
Last Quarter
Aug 30
New

Hourly Weather History & Observations

Time (EDT) Temp. Dew Point Humidity Pressure Visibility Wind Dir Wind Speed Gust Speed Precip Events Conditions
12:53 AM 64.9 °F 57.9 °F 78% 29.86 in 10.0 mi SSE 5.8 mph - 0.00 in   Overcast
1:30 AM 64.9 °F 57.9 °F 78% 29.87 in 10.0 mi South 3.5 mph - N/A   Overcast
1:53 AM 66.0 °F 59.0 °F 78% 29.86 in 10.0 mi South 5.8 mph - N/A   Overcast
2:53 AM 66.0 °F 61.0 °F 84% 29.85 in 10.0 mi South 6.9 mph - N/A   Overcast
3:23 AM 64.9 °F 61.0 °F 87% 29.86 in 10.0 mi South 5.8 mph - N/A   Overcast
3:53 AM 64.9 °F 61.0 °F 87% 29.86 in 10.0 mi South 5.8 mph - N/A   Overcast
4:53 AM 64.0 °F 62.1 °F 93% 29.85 in 10.0 mi South 4.6 mph - N/A   Overcast
5:30 AM 64.0 °F 62.1 °F 93% 29.87 in 2.5 mi SSW 4.6 mph - N/A   Overcast
5:53 AM 64.0 °F 63.0 °F 96% 29.86 in 2.0 mi SSE 4.6 mph - N/A   Overcast
6:01 AM 64.0 °F 63.0 °F 96% 29.87 in 2.5 mi SSE 4.6 mph - N/A   Overcast
6:53 AM 64.9 °F 63.0 °F 93% 29.87 in 2.0 mi SE 5.8 mph - N/A   Overcast
7:09 AM 64.9 °F 63.0 °F 93% 29.88 in 6.0 mi SE 9.2 mph - N/A   Overcast
7:53 AM 66.0 °F 63.0 °F 90% 29.87 in 6.0 mi SSE 8.1 mph - N/A   Overcast
8:25 AM 68.0 °F 64.0 °F 87% 29.88 in 10.0 mi SSE 3.5 mph - N/A   Overcast
8:53 AM 69.1 °F 64.9 °F 87% 29.87 in 10.0 mi SSW 5.8 mph - N/A   Overcast
9:53 AM 71.1 °F 64.9 °F 81% 29.87 in 10.0 mi SSW 9.2 mph - 0.00 in   Overcast
10:53 AM 72.0 °F 64.9 °F 78% 29.86 in 10.0 mi SSW 9.2 mph - N/A   Overcast
11:53 AM 73.0 °F 66.0 °F 79% 29.86 in 10.0 mi South 8.1 mph - N/A   Overcast
12:53 PM 73.0 °F 66.0 °F 79% 29.87 in 10.0 mi North - - N/A   Unknown
1:53 PM 75.9 °F 66.0 °F 71% 29.86 in 10.0 mi South 12.7 mph - N/A   Mostly Cloudy
2:53 PM 75.9 °F 64.9 °F 69% 29.84 in 10.0 mi South 15.0 mph - N/A   Mostly Cloudy
3:53 PM 77.0 °F 66.9 °F 71% 29.84 in 10.0 mi South 11.5 mph - N/A   Mostly Cloudy
4:53 PM 73.9 °F 66.9 °F 79% 29.83 in 10.0 mi South 16.1 mph - N/A   Mostly Cloudy
5:53 PM 72.0 °F 66.0 °F 81% 29.84 in 10.0 mi South 10.4 mph - N/A   Overcast
6:25 PM 72.0 °F 66.9 °F 84% 29.85 in 10.0 mi South 13.8 mph - N/A   Overcast
6:53 PM 71.1 °F 66.9 °F 87% 29.84 in 10.0 mi South 9.2 mph - N/A   Overcast
8:53 PM 70.0 °F 66.9 °F 90% 29.86 in 10.0 mi South 12.7 mph - N/A   Overcast
9:53 PM 68.0 °F 66.9 °F 96% 29.85 in 10.0 mi SSE 6.9 mph - 0.11 in   Overcast
10:15 PM 68.0 °F 66.0 °F 93% 29.85 in 10.0 mi SSE 8.1 mph - 0.00 in Rain Light Rain
10:42 PM 68.0 °F 66.9 °F 96% 29.85 in 8.0 mi South 6.9 mph - 0.02 in Rain Light Rain
10:53 PM 68.0 °F 66.9 °F 96% 29.83 in 10.0 mi South 8.1 mph - 0.02 in   Overcast
11:09 PM 68.0 °F 66.9 °F 96% 29.84 in 9.0 mi South 6.9 mph - N/A Thunderstorm Overcast
11:20 PM 68.0 °F 66.9 °F 96% 29.85 in 8.0 mi South 8.1 mph - 0.01 in Rain , Thunderstorm Light Thunderstorms and Rain
11:33 PM 68.0 °F 66.9 °F 96% 29.85 in 1.8 mi SSW 4.6 mph - 0.15 in Rain , Thunderstorm Thunderstorms and Rain
11:47 PM 68.0 °F 66.2 °F 94% 29.84 in 1.5 mi SE 3.5 mph - 0.30 in Rain Light Rain
11:53 PM 68.0 °F 66.9 °F 96% 29.83 in 2.0 mi SSE 4.6 mph - 0.34 in Rain , Thunderstorm Light Thunderstorms and Rain